Smyrna, TN

8:47 PM CDT on July 22, 2017 (GMT -0500)
Smyrna

Weather History for KMQY - June, 2012

Change the Weather History Date:

Tuesday, June 12, 2012

  Actual Average Record
Temperature  
Mean Temperature 76 °F -  
Max Temperature 88 °F 81 °F 95 °F (2016)
Min Temperature 63 °F 66 °F 59 °F (2007)
Cooling Degree Days 10    
Growing Degree Days 26 (Base 50)    
Moisture  
Dew Point 66 °F    
Average Humidity 89    
Maximum Humidity 100    
Minimum Humidity 48    
Precipitation  
Precipitation 0.00 in - - ()
Sea Level Pressure  
Sea Level Pressure 29.99 in    
Wind  
Wind Speed 2 mph (NW)    
Max Wind Speed 14 mph    
Max Gust Speed -    
Visibility 5 miles    
Events Fog    
Averages and records for this station are not official NWS values.
T = Trace of Precipitation, MM = Missing Value Source: NWS Daily Summary

Daily Weather History Graph

Daily Weather History Graph

Search for Another Location

Airport or City:

Trip Planner

Search our weather history database for the weather conditions in past years. The results will help you decide how hot, cold, wet, or windy it might be!

Date:

Astronomy

Jun. 12, 2012 Rise Set
Actual Time 5:28 AM CDT 8:03 PM CDT
Civil Twilight 4:58 AM CDT 8:33 PM CDT
Nautical Twilight 4:21 AM CDT 9:11 PM CDT
Astronomical Twilight 3:39 AM CDT 9:52 PM CDT
Moon 1:04 AM CDT (6/12) 2:00 PM CDT (6/12)
Length of Visible Light 15h 35m
Length of Day
14h 34m
Last Quarter, 38% of the Moon is Illuminated
Jun 12
Last Quarter
Jun 19
New
Jun 26
First Quarter
Jul 3
Full
Jul 10
Last Quarter

Hourly Weather History & Observations

Time (CDT) Temp. Heat Index Dew Point Humidity Pressure Visibility Wind Dir Wind Speed Gust Speed Precip Events Conditions
12:31 AM 68.0 °F - 68.0 °F 100% 29.95 in 1.8 mi Calm Calm - N/A   Clear
12:41 AM 66.2 °F - 66.2 °F 100% 29.96 in 3.0 mi West 5.8 mph - N/A   Clear
12:56 AM 68.0 °F - 68.0 °F 100% 29.94 in 10.0 mi Calm Calm - N/A   Clear
1:21 AM 66.2 °F - 66.2 °F 100% 29.98 in 1.5 mi Calm Calm - N/A   Clear
1:25 AM 66.2 °F - 66.2 °F 100% 29.98 in 1.0 mi Calm Calm - N/A   Clear
1:30 AM 66.2 °F - 66.2 °F 100% 29.99 in 1.8 mi Calm Calm - N/A   Clear
1:33 AM 66.2 °F - 66.2 °F 100% 29.98 in 4.0 mi Calm Calm - N/A   Clear
1:46 AM 66.2 °F - 66.2 °F 100% 29.98 in 2.0 mi Calm Calm - N/A   Clear
1:56 AM 65.8 °F - 65.8 °F 100% 29.96 in 1.0 mi Calm Calm - N/A   Clear
2:00 AM 66.2 °F - 66.2 °F 100% 29.99 in 0.5 mi Calm Calm - N/A Fog Fog
2:12 AM 66.2 °F - 66.2 °F 100% 29.99 in 0.8 mi Calm Calm - N/A   Clear
2:22 AM 64.4 °F - 64.4 °F 100% 29.99 in 1.2 mi Calm Calm - N/A   Clear
2:24 AM 64.4 °F - 64.4 °F 100% 29.99 in 2.5 mi Calm Calm - N/A   Clear
2:31 AM 66.2 °F - 66.2 °F 100% 29.99 in 7.0 mi Calm Calm - N/A   Clear
2:56 AM 65.8 °F - 65.8 °F 100% 29.96 in 1.2 mi Calm Calm - N/A   Clear
3:08 AM 64.4 °F - 64.4 °F 100% 29.98 in 0.8 mi Calm Calm - N/A   Clear
3:13 AM 64.4 °F - 64.4 °F 100% 29.98 in 0.2 mi Calm Calm - N/A Fog Fog
3:29 AM 64.4 °F - 64.4 °F 100% 29.98 in 0.5 mi Calm Calm - N/A Fog Fog
3:33 AM 64.4 °F - 64.4 °F 100% 29.98 in 1.0 mi Calm Calm - N/A   Clear
3:36 AM 64.4 °F - 64.4 °F 100% 29.98 in 1.5 mi Calm Calm - N/A   Clear
3:45 AM 64.4 °F - 64.4 °F 100% 29.98 in 3.0 mi Calm Calm - N/A   Clear
3:48 AM 64.4 °F - 64.4 °F 100% 29.98 in 1.8 mi Calm Calm - N/A   Mostly Cloudy
3:56 AM 63.9 °F - 63.9 °F 100% 29.96 in 0.5 mi Calm Calm - N/A Fog Fog
4:00 AM 64.4 °F - 64.4 °F 100% 29.98 in 1.0 mi Calm Calm - N/A   Mostly Cloudy
4:02 AM 64.4 °F - 64.4 °F 100% 29.98 in 1.8 mi West 5.8 mph - N/A   Mostly Cloudy
4:04 AM 64.4 °F - 64.4 °F 100% 29.98 in 3.0 mi West 5.8 mph - N/A   Mostly Cloudy
4:17 AM 66.2 °F - 66.2 °F 100% 29.98 in 4.0 mi Calm Calm - N/A   Overcast
4:23 AM 66.2 °F - 66.2 °F 100% 29.99 in 1.5 mi NW 5.8 mph - N/A   Overcast
4:25 AM 66.2 °F - 66.2 °F 100% 29.99 in 1.0 mi NW 4.6 mph - N/A   Overcast
4:30 AM 66.2 °F - 66.2 °F 100% 29.99 in 0.5 mi NW 4.6 mph - N/A Fog Fog
4:56 AM 66.9 °F - 66.9 °F 100% 29.98 in 0.8 mi NW 5.8 mph - N/A   Overcast
5:14 AM 66.2 °F - 66.2 °F 100% 30.01 in 1.2 mi WNW 4.6 mph - N/A   Overcast
5:20 AM 66.2 °F - 66.2 °F 100% 30.02 in 2.0 mi West 4.6 mph - N/A   Overcast
5:28 AM 66.2 °F - 66.2 °F 100% 30.02 in 4.0 mi West 4.6 mph - N/A   Overcast
5:56 AM 66.9 °F - 66.9 °F 100% 29.99 in 4.0 mi Calm Calm - N/A   Mostly Cloudy
6:56 AM 68.0 °F - 68.0 °F 100% 30.01 in 10.0 mi West 4.6 mph - N/A   Overcast
7:27 AM 69.8 °F - 69.8 °F 100% 30.03 in 10.0 mi Calm Calm - N/A   Overcast
7:56 AM 70.0 °F - 66.9 °F 90% 30.01 in 10.0 mi WNW 4.6 mph - N/A   Overcast
8:56 AM 70.9 °F - 65.8 °F 84% 30.03 in 10.0 mi WNW 5.8 mph - N/A   Overcast
9:56 AM 73.9 °F - 66.9 °F 79% 30.04 in 10.0 mi NNW 6.9 mph - N/A   Overcast
10:28 AM 75.2 °F - 66.2 °F 73% 30.07 in 10.0 mi North 6.9 mph - N/A   Overcast
10:56 AM 77.9 °F - 66.9 °F 69% 30.05 in 10.0 mi NW 6.9 mph - N/A   Mostly Cloudy
11:56 AM 82.9 °F 85.4 °F 66.9 °F 58% 30.04 in 10.0 mi WNW 9.2 mph - N/A   Mostly Cloudy
12:56 PM 81.9 °F 83.9 °F 65.8 °F 58% 30.04 in 10.0 mi NW 9.2 mph - N/A   Mostly Cloudy
1:47 PM 84.2 °F 86.6 °F 66.2 °F 55% 30.05 in 10.0 mi NW 10.4 mph - N/A   Scattered Clouds
2:56 PM 88.0 °F 90.7 °F 66.9 °F 49% 30.00 in 10.0 mi NNW 8.1 mph - N/A   Scattered Clouds
3:56 PM 86.0 °F 88.2 °F 65.8 °F 51% 29.99 in 10.0 mi North 13.8 mph - N/A   Clear
4:56 PM 86.9 °F 88.6 °F 64.9 °F 48% 29.97 in 10.0 mi North 10.4 mph - N/A   Scattered Clouds
5:56 PM 86.0 °F 87.6 °F 64.9 °F 49% 29.96 in 10.0 mi North 6.9 mph - N/A   Partly Cloudy
6:56 PM 81.0 °F 81.9 °F 61.9 °F 52% 29.97 in 10.0 mi North 8.1 mph - N/A   Partly Cloudy
7:56 PM 77.9 °F - 61.9 °F 58% 29.99 in 10.0 mi North 8.1 mph - N/A   Clear
8:56 PM 73.9 °F - 61.9 °F 66% 30.00 in 10.0 mi North 3.5 mph - N/A   Clear
9:56 PM 72.9 °F - 63.9 °F 73% 30.03 in 10.0 mi North 5.8 mph - N/A   Clear
10:56 PM 68.9 °F - 61.0 °F 76% 30.03 in 10.0 mi North 3.5 mph - N/A   Clear